Flag for U.S.A. Weather past 2 weeks in Key West, Florida, U.S.A.

Now
77 °F

Sunny.


Feels Like: 79 °F
Forecast: 71 / 79 °F
Wind: 15 mph from East

Location: Key West International Airport

Current Time: Mar 3, 2015 at 6:32:12 PM

Latest Report: Mar 3, 2015 at 5:53 PM


Visibility: 10 mi

Pressure: 30.09 "Hg

Humidity: 74%

Dew point: 68 °F

Location of Key WestLocation

Historic Weather in Key West — Graph

°F

Key West temperature yesterday

Maximum temperature yesterday: 80 °F (at 11:53 AM)
Minimum temperature yesterday: 73 °F (at 5:53 AM)
Average temperature yesterday: 76 °F

Past Weeks' High & Low Weather Summary

 TemperatureHumidityPressure
High81 °F (Feb 23, 1:53 PM)100% (Feb 17, 11:04 PM)30.35 "Hg (Feb 17, 11:04 PM)
Low49 °F (Feb 20, 5:53 AM)44% (Feb 20, 11:53 AM)29.83 "Hg (Feb 26, 2:53 AM)
Average71 °F82%30.11 "Hg
* Reported Feb 16 4:53 PM — Mar 3 4:53 PM, Key West, Weather by CustomWeather, © 2015

Note: Actual official high and low records may vary slightly from our data, if they occured in-between our weather recording intervals... More about our weather records

Advertising

Key West weather history for previous 24 hours

 ConditionsComfort  
Time TempWeatherWind HumidityBarometerVisibility
4:53 PM
Tue, Mar 3
78 °FPassing clouds.14 mph74%30.09 "Hg10 mi
3:53 PM79 °FSunny.16 mph74%30.09 "Hg10 mi
2:53 PM80 °FSunny.15 mph69%30.11 "Hg10 mi
1:53 PM80 °FSunny.17 mph71%30.12 "Hg10 mi
12:53 PM80 °FSunny.15 mph71%30.15 "Hg10 mi
11:53 AM79 °FSunny.18 mph74%30.18 "Hg10 mi
10:53 AM79 °FSunny.17 mph74%30.19 "Hg10 mi
9:53 AM78 °FSunny.15 mph76%30.19 "Hg10 mi
8:53 AM77 °FSunny.12 mph79%30.18 "Hg10 mi
7:53 AM76 °FSunny.14 mph80%30.16 "Hg10 mi
6:53 AM74 °FSunny.14 mph82%30.14 "Hg10 mi
5:53 AM73 °FPassing clouds.12 mph88%30.13 "Hg10 mi
4:53 AM73 °FPassing clouds.9 mph88%30.12 "Hg10 mi
3:53 AM73 °FClear.8 mph84%30.12 "Hg10 mi
2:53 AM73 °FPassing clouds.9 mph88%30.13 "Hg10 mi
1:53 AM74 °FPassing clouds.9 mph85%30.15 "Hg10 mi
12:53 AM73 °FClear.7 mph81%30.17 "Hg10 mi
11:53 PM
Mon, Mar 2
73 °FClear.8 mph81%30.18 "Hg10 mi
10:53 PM74 °FClear.8 mph79%30.20 "Hg10 mi
9:53 PM74 °FClear.8 mph76%30.20 "Hg10 mi
8:53 PM74 °FClear.10 mph82%30.20 "Hg10 mi
7:53 PM74 °FClear.10 mph85%30.19 "Hg10 mi
6:53 PM75 °FClear.9 mph82%30.17 "Hg10 mi
Weather by CustomWeather, © 2015

See weather overviewHow to use our weather pages